Tracking 19920 objects as of 13-Oct-2019
HD Live streaming from Space Station
objects crossing your sky now

IRIDIUM 33 DEB

Track IRIDIUM 33 DEB now!
10-day predictions


NORAD ID: 36563
Int'l Code: 1997-051WS
Perigee: 617.8 km
Apogee: 683.4 km
Inclination: 86.4 °
Period: 97.6 minutes
Semi major axis: 7021 km
RCS: 0.003 m2 (small)
Launch date: September 14, 1997
Source: United States (US)
Launch site: TYURATAM MISSILE AND SPACE COMPLEX (TTMTR)

Note: This is SATELLITE DEBRIS
aabbcc
Your satellite tracking list
Your tracking list is empty




NASA's NSSDC Master Catalog

Two Line Element Set (TLE):
1 36563U 97051WS  19286.11012108  .00003644  00000-0  52207-3 0  9991
2 36563  86.3567 234.1502 0046750  83.6621 276.9919 14.75532134539022
Source of the keplerian elements: AFSPC